Zurück zum Katalog

TIANLIAN-2 04

AktivKommunikationGEO
NORAD 63361·PAYLOAD·🇨🇳 China

Gestartet Mar 26, 2025 von Xichang Satellite Launch Center

Loading…

TLE

AktuellSource: Space-Track

Epoche: Sep 14, 2026, 14:10 UTC

1 63361U 25062A   26257.59096108 -.00000146  00000-0  00000-0 0  9996
2 63361   4.1513 273.2008 0032815   8.1122   5.0223  1.00270684  5500

Verfolge TIANLIAN-2 04 in Echtzeit mit AllMySat

Download on the App Store